TimeCST,TemperatureF,Dew PointF,Humidity,Sea Level PressureIn,VisibilityMPH,Wind Direction,Wind SpeedMPH,Gust SpeedMPH,PrecipitationIn,Events,Conditions,WindDirDegrees,DateUTC
12:53 AM,19.9,18.0,92,29.85,10.0,NW,12.7,18.4,N/A,,Overcast,310,2012-11-25 06:53:00
1:53 AM,19.9,17.1,89,29.86,10.0,WNW,8.1,-,N/A,,Overcast,300,2012-11-25 07:53:00
2:02 AM,19.4,17.6,93,29.80,10.0,WNW,5.8,-,N/A,,Overcast,290,2012-11-25 08:02:00
2:28 AM,19.4,15.8,86,29.81,10.0,WNW,6.9,-,N/A,,Overcast,300,2012-11-25 08:28:00
2:53 AM,19.0,15.1,85,29.88,9.0,WNW,6.9,-,N/A,,Overcast,300,2012-11-25 08:53:00
3:53 AM,18.0,12.9,81,29.89,10.0,WNW,11.5,16.1,N/A,,Overcast,300,2012-11-25 09:53:00
4:27 AM,17.6,12.2,79,29.82,10.0,WNW,4.6,-,N/A,,Overcast,300,2012-11-25 10:27:00
4:53 AM,17.1,12.9,84,29.90,10.0,West,4.6,-,N/A,,Overcast,280,2012-11-25 10:53:00
5:24 AM,17.6,12.2,79,29.83,10.0,Variable,3.5,-,N/A,,Overcast,0,2012-11-25 11:24:00
5:53 AM,17.1,12.9,84,29.91,2.5,Variable,4.6,-,0.00,Snow,Light Snow,0,2012-11-25 11:53:00
6:13 AM,17.6,12.2,79,29.84,1.8,West,4.6,-,0.00,Snow,Light Snow,280,2012-11-25 12:13:00
6:16 AM,17.6,12.2,79,29.84,2.5,Variable,3.5,-,0.00,Snow,Light Snow,0,2012-11-25 12:16:00
6:23 AM,17.6,12.2,79,29.85,5.0,West,3.5,-,0.00,Snow,Light Snow,280,2012-11-25 12:23:00
6:46 AM,17.6,12.2,79,29.84,2.0,Variable,3.5,-,0.00,Snow,Light Snow,0,2012-11-25 12:46:00
6:50 AM,17.6,12.2,79,29.85,1.2,West,4.6,-,0.00,Snow,Light Snow,280,2012-11-25 12:50:00
6:53 AM,17.1,12.9,84,29.92,1.0,West,5.8,-,0.00,Snow,Light Snow,280,2012-11-25 12:53:00
7:02 AM,17.6,14.0,86,29.85,1.5,Variable,3.5,-,0.00,Snow,Light Snow,0,2012-11-25 13:02:00
7:08 AM,17.6,14.0,86,29.85,3.0,WNW,3.5,-,0.00,Snow,Light Snow,290,2012-11-25 13:08:00
7:16 AM,17.6,12.2,79,29.85,2.5,WNW,4.6,-,0.00,Snow,Light Snow,290,2012-11-25 13:16:00
7:40 AM,17.6,14.0,86,29.85,2.0,WNW,4.6,-,0.00,Snow,Light Snow,290,2012-11-25 13:40:00
7:50 AM,17.6,14.0,86,29.85,3.0,Calm,Calm,-,0.00,Snow,Light Snow,0,2012-11-25 13:50:00
7:53 AM,17.1,14.0,88,29.92,4.0,West,3.5,-,0.00,Snow,Light Snow,270,2012-11-25 13:53:00
8:53 AM,17.1,14.0,88,29.92,3.0,Calm,Calm,-,0.00,Snow,Light Snow,0,2012-11-25 14:53:00
8:57 AM,17.6,14.0,86,29.85,2.0,Calm,Calm,-,0.00,Snow,Light Snow,0,2012-11-25 14:57:00
9:04 AM,17.6,14.0,86,29.85,1.2,Calm,Calm,-,0.00,Snow,Light Snow,0,2012-11-25 15:04:00
9:12 AM,17.6,15.8,93,29.85,2.0,Calm,Calm,-,0.00,Snow,Light Snow,0,2012-11-25 15:12:00
9:23 AM,17.6,15.8,93,29.86,2.5,Calm,Calm,-,0.00,Snow,Light Snow,0,2012-11-25 15:23:00
9:53 AM,18.0,15.1,88,29.93,3.0,Calm,Calm,-,0.00,Snow,Light Snow,0,2012-11-25 15:53:00
10:32 AM,19.4,15.8,86,29.87,10.0,WNW,3.5,-,0.00,,Overcast,300,2012-11-25 16:32:00
10:53 AM,21.0,17.1,85,29.93,5.0,WNW,5.8,-,0.00,,Overcast,290,2012-11-25 16:53:00
11:21 AM,21.2,15.8,80,29.87,9.0,WNW,11.5,20.7,N/A,,Overcast,300,2012-11-25 17:21:00
11:53 AM,19.9,15.1,81,29.94,5.0,NW,17.3,-,0.00,Snow,Light Snow,320,2012-11-25 17:53:00
12:39 PM,19.4,10.4,68,29.89,10.0,NW,19.6,26.5,0.00,,Overcast,320,2012-11-25 18:39:00
12:53 PM,19.9,10.9,68,29.96,9.0,WNW,13.8,24.2,0.00,Snow,Light Snow,300,2012-11-25 18:53:00
1:20 PM,17.6,12.2,79,29.91,1.8,NNW,16.1,26.5,0.00,Snow,Light Snow,330,2012-11-25 19:20:00
1:29 PM,15.8,10.4,79,29.91,1.2,NNW,17.3,24.2,0.00,Snow,Light Snow,330,2012-11-25 19:29:00
1:36 PM,17.6,12.2,79,29.92,2.0,NW,16.1,24.2,0.00,Snow,Light Snow,320,2012-11-25 19:36:00
1:45 PM,17.6,10.4,73,29.92,6.0,NNW,19.6,24.2,0.00,Snow,Light Snow,330,2012-11-25 19:45:00
1:53 PM,16.0,9.0,74,29.99,8.0,NW,17.3,24.2,0.00,Snow,Light Snow,310,2012-11-25 19:53:00
2:42 PM,15.8,8.6,73,29.95,2.5,NW,18.4,25.3,0.00,Snow,Light Snow,320,2012-11-25 20:42:00
2:53 PM,14.0,8.1,77,30.03,2.0,NW,19.6,-,0.00,Snow,Light Snow,320,2012-11-25 20:53:00
3:02 PM,14.0,6.8,73,29.95,6.0,NW,19.6,-,0.00,Snow,Light Snow,320,2012-11-25 21:02:00
3:53 PM,14.0,6.1,71,30.06,10.0,NW,16.1,-,0.00,,Overcast,320,2012-11-25 21:53:00
4:53 PM,12.9,5.0,71,30.08,10.0,NW,15.0,-,N/A,,Overcast,320,2012-11-25 22:53:00
5:53 PM,10.9,5.0,77,30.11,10.0,NNW,11.5,-,N/A,,Overcast,340,2012-11-25 23:53:00
6:53 PM,10.0,5.0,80,30.14,3.0,NNW,12.7,-,0.00,Snow,Light Snow,340,2012-11-26 00:53:00
7:53 PM,9.0,3.9,80,30.17,4.0,NNW,11.5,-,0.00,,Haze,330,2012-11-26 01:53:00
8:31 PM,8.6,3.2,79,30.12,1.8,NNW,13.8,-,0.00,Snow,Light Snow,330,2012-11-26 02:31:00
8:42 PM,8.6,3.2,79,30.11,1.0,NNW,12.7,20.7,0.00,Snow,Light Snow,340,2012-11-26 02:42:00
8:53 PM,9.0,5.0,84,30.20,1.2,NNW,11.5,-,0.00,Snow,Light Snow,330,2012-11-26 02:53:00
9:09 PM,8.6,5.0,85,30.12,1.0,NNW,12.7,-,0.00,Snow,Light Snow,340,2012-11-26 03:09:00
9:42 PM,8.6,3.2,79,30.13,1.5,NNW,12.7,-,0.00,Snow,Light Snow,330,2012-11-26 03:42:00
9:49 PM,8.6,3.2,79,30.14,3.0,NNW,10.4,-,0.00,Snow,Light Snow,330,2012-11-26 03:49:00
9:53 PM,8.1,3.0,80,30.22,4.0,NNW,9.2,-,0.00,,Haze,340,2012-11-26 03:53:00
10:53 PM,8.1,3.0,80,30.23,3.0,NNW,9.2,-,0.00,,Haze,330,2012-11-26 04:53:00
11:01 PM,6.8,3.2,85,30.16,2.5,NNW,10.4,-,0.00,Snow,Light Snow,330,2012-11-26 05:01:00
11:24 PM,6.8,3.2,85,30.17,1.8,NW,6.9,-,0.00,Snow,Light Snow,320,2012-11-26 05:24:00
11:47 PM,6.8,3.2,85,30.18,1.0,WNW,4.6,-,0.00,Snow,Light Snow,300,2012-11-26 05:47:00
11:48 PM,6.1,3.0,87,30.25,1.0,WNW,5.8,-,0.00,Snow,Light Snow,290,2012-11-26 05:48:00